"Time","Value","Approval","myLocation"
"2023-05-09 00:00",9.95,"Approved","OW289"
"2023-05-09 01:00",9.952,"Approved","OW289"
"2023-05-09 02:00",9.953,"Approved","OW289"
"2023-05-09 03:00",9.955,"Approved","OW289"
"2023-05-09 04:00",9.959,"Approved","OW289"
"2023-05-09 05:00",9.961,"Approved","OW289"
"2023-05-09 06:00",9.963,"Approved","OW289"
"2023-05-09 07:00",9.964,"Approved","OW289"
"2023-05-09 08:00",9.963,"Approved","OW289"
"2023-05-09 09:00",9.961,"Approved","OW289"
"2023-05-09 10:00",9.957,"Approved","OW289"
"2023-05-09 11:00",9.955,"Approved","OW289"
"2023-05-09 12:00",9.951,"Approved","OW289"
"2023-05-09 13:00",9.945,"Approved","OW289"
"2023-05-09 14:00",9.939,"Approved","OW289"
"2023-05-09 15:00",9.937,"Approved","OW289"
"2023-05-09 16:00",9.935,"Approved","OW289"
"2023-05-09 17:00",9.944,"Approved","OW289"
"2023-05-09 18:00",9.943,"Approved","OW289"
"2023-05-09 19:00",9.947,"Approved","OW289"
"2023-05-09 20:00",9.955,"Approved","OW289"
"2023-05-09 21:00",9.955,"Approved","OW289"
"2023-05-09 22:00",9.951,"Approved","OW289"
"2023-05-09 23:00",9.956,"Approved","OW289"
"2023-05-10 00:00",9.957,"Approved","OW289"
"2023-05-10 01:00",9.958,"Approved","OW289"
"2023-05-10 02:00",9.958,"Approved","OW289"
"2023-05-10 03:00",9.96,"Approved","OW289"
"2023-05-10 04:00",9.956,"Approved","OW289"
"2023-05-10 05:00",9.959,"Approved","OW289"
"2023-05-10 06:00",9.963,"Approved","OW289"
"2023-05-10 07:00",9.958,"Approved","OW289"
"2023-05-10 08:00",9.959,"Approved","OW289"
"2023-05-10 09:00",9.954,"Approved","OW289"
"2023-05-10 10:00",9.952,"Approved","OW289"
"2023-05-10 11:00",9.948,"Approved","OW289"
"2023-05-10 12:00",9.944,"Approved","OW289"
"2023-05-10 13:00",9.935,"Approved","OW289"
"2023-05-10 14:00",9.935,"Approved","OW289"
"2023-05-10 15:00",9.933,"Approved","OW289"
"2023-05-10 16:00",9.933,"Approved","OW289"
"2023-05-10 17:00",9.931,"Approved","OW289"
"2023-05-10 18:00",9.931,"Approved","OW289"
"2023-05-10 19:00",9.939,"Approved","OW289"
"2023-05-10 20:00",9.943,"Approved","OW289"
"2023-05-10 21:00",9.95,"Approved","OW289"
"2023-05-10 22:00",9.952,"Approved","OW289"
"2023-05-10 23:00",9.954,"Approved","OW289"
"2023-05-11 00:00",9.954,"Approved","OW289"
"2023-05-11 01:00",9.956,"Approved","OW289"
"2023-05-11 02:00",9.957,"Approved","OW289"
"2023-05-11 03:00",9.969,"Approved","OW289"
"2023-05-11 04:00",9.961,"Approved","OW289"
"2023-05-11 05:00",9.963,"Approved","OW289"
"2023-05-11 06:00",9.971,"Approved","OW289"
"2023-05-11 07:00",9.973,"Approved","OW289"
"2023-05-11 08:00",9.971,"Approved","OW289"
"2023-05-11 09:00",9.969,"Approved","OW289"
"2023-05-11 10:00",9.969,"Approved","OW289"
"2023-05-11 11:00",9.961,"Approved","OW289"
"2023-05-11 12:00",9.958,"Approved","OW289"
"2023-05-11 13:00",9.956,"Approved","OW289"
"2023-05-11 14:00",9.95,"Approved","OW289"
"2023-05-11 15:00",9.95,"Approved","OW289"
"2023-05-11 16:00",9.948,"Approved","OW289"
"2023-05-11 17:00",9.942,"Approved","OW289"
"2023-05-11 18:00",9.944,"Approved","OW289"
"2023-05-11 19:00",9.949,"Approved","OW289"
"2023-05-11 20:00",9.953,"Approved","OW289"
"2023-05-11 21:00",9.964,"Approved","OW289"
"2023-05-11 22:00",9.967,"Approved","OW289"
"2023-05-11 23:00",9.969,"Approved","OW289"
"2023-05-12 00:00",9.972,"Approved","OW289"
"2023-05-12 01:00",9.979,"Approved","OW289"
"2023-05-12 02:00",9.98,"Approved","OW289"
"2023-05-12 03:00",9.98,"Approved","OW289"
"2023-05-12 04:00",9.98,"Approved","OW289"
"2023-05-12 05:00",9.984,"Approved","OW289"
"2023-05-12 06:00",9.986,"Approved","OW289"
"2023-05-12 07:00",9.984,"Approved","OW289"
"2023-05-12 08:00",9.99,"Approved","OW289"
"2023-05-12 09:00",9.982,"Approved","OW289"
"2023-05-12 10:00",9.98,"Approved","OW289"
"2023-05-12 11:00",9.976,"Approved","OW289"
"2023-05-12 12:00",9.972,"Approved","OW289"
"2023-05-12 13:00",9.97,"Approved","OW289"
"2023-05-12 14:00",9.967,"Approved","OW289"
"2023-05-12 15:00",9.966,"Approved","OW289"
"2023-05-12 16:00",9.961,"Approved","OW289"
"2023-05-12 17:00",9.959,"Approved","OW289"
"2023-05-12 18:00",9.972,"Approved","OW289"
"2023-05-12 19:00",9.981,"Approved","OW289"
"2023-05-12 20:00",9.974,"Approved","OW289"
"2023-05-12 21:00",9.976,"Approved","OW289"
"2023-05-12 22:00",9.979,"Approved","OW289"
"2023-05-12 23:00",9.981,"Approved","OW289"
"2023-05-13 00:00",9.983,"Approved","OW289"
"2023-05-13 01:00",9.985,"Approved","OW289"
"2023-05-13 02:00",9.985,"Approved","OW289"
"2023-05-13 03:00",9.993,"Approved","OW289"
"2023-05-13 04:00",9.99,"Approved","OW289"
"2023-05-13 05:00",9.991,"Approved","OW289"
"2023-05-13 06:00",9.992,"Approved","OW289"
"2023-05-13 07:00",9.996,"Approved","OW289"
"2023-05-13 08:00",9.992,"Approved","OW289"
"2023-05-13 09:00",9.986,"Approved","OW289"
"2023-05-13 10:00",9.985,"Approved","OW289"
"2023-05-13 11:00",9.979,"Approved","OW289"
"2023-05-13 12:00",9.975,"Approved","OW289"
"2023-05-13 13:00",9.965,"Approved","OW289"
"2023-05-13 14:00",9.963,"Approved","OW289"
"2023-05-13 15:00",9.954,"Approved","OW289"
"2023-05-13 16:00",9.954,"Approved","OW289"
"2023-05-13 17:00",9.95,"Approved","OW289"
"2023-05-13 18:00",9.95,"Approved","OW289"
"2023-05-13 19:00",9.95,"Approved","OW289"
"2023-05-13 20:00",9.956,"Approved","OW289"
"2023-05-13 21:00",9.958,"Approved","OW289"
"2023-05-13 22:00",9.958,"Approved","OW289"
"2023-05-13 23:00",9.961,"Approved","OW289"
"2023-05-14 00:00",9.963,"Approved","OW289"
"2023-05-14 01:00",9.965,"Approved","OW289"
"2023-05-14 02:00",9.962,"Approved","OW289"
"2023-05-14 03:00",9.965,"Approved","OW289"
"2023-05-14 04:00",9.957,"Approved","OW289"
"2023-05-14 05:00",9.961,"Approved","OW289"
"2023-05-14 06:00",9.963,"Approved","OW289"
"2023-05-14 07:00",9.959,"Approved","OW289"
"2023-05-14 08:00",9.955,"Approved","OW289"
"2023-05-14 09:00",9.955,"Approved","OW289"
"2023-05-14 10:00",9.946,"Approved","OW289"
"2023-05-14 11:00",9.95,"Approved","OW289"
"2023-05-14 12:00",9.984,"Approved","OW289"
"2023-05-14 13:00",9.956,"Approved","OW289"
"2023-05-14 14:00",9.948,"Approved","OW289"
"2023-05-14 15:00",9.978,"Approved","OW289"
"2023-05-14 16:00",9.978,"Approved","OW289"
"2023-05-14 17:00",9.984,"Approved","OW289"
"2023-05-14 18:00",9.992,"Approved","OW289"
"2023-05-14 19:00",9.998,"Approved","OW289"
"2023-05-14 20:00",9.998,"Approved","OW289"
"2023-05-14 21:00",10.006,"Approved","OW289"
"2023-05-14 22:00",10.01,"Approved","OW289"
"2023-05-14 23:00",10.01,"Approved","OW289"
"2023-05-15 00:00",10.014,"Approved","OW289"
"2023-05-15 01:00",10.018,"Approved","OW289"
"2023-05-15 02:00",10.02,"Approved","OW289"
"2023-05-15 03:00",10.026,"Approved","OW289"
"2023-05-15 04:00",10.031,"Approved","OW289"
"2023-05-15 05:00",10.034,"Approved","OW289"
"2023-05-15 06:00",10.051,"Approved","OW289"
"2023-05-15 07:00",10.03,"Approved","OW289"
"2023-05-15 08:00",10.002,"Approved","OW289"
"2023-05-15 09:00",9.991,"Approved","OW289"
"2023-05-15 10:00",9.988,"Approved","OW289"
"2023-05-15 11:00",9.987,"Working","OW289"
